Location: Ammerl�gen
(47.2167°N, 9.6000°E)
Time: 13:32:30
(UTC+00:00)

Cosmos 676 Rocket - Pass Details

Date: 01 August 2021
Orbit: 755 x 783 km, 74.0° (Epoch: 26 September)

Event Time Altitude Azimuth Distance (km) Brightness Sun altitude
Exits shadow 02:01:26 27° 219° (SW) 1,476 4.9 -16.3°
Maximum altitude 02:04:21 66° 295° (WNW) 856 4.1 -15.9°
Drops below altitude 10° 02:09:40 10° 18° (NNE) 2,348 7.6 -15.4°
Sets 02:12:05 0° 21° (NNE) 3,279 8.7 -15.1°
